Regional Weather Roundup
Issued by NWS

Current Version | Previous Version | Text Only | Print | Product List | Glossary Off
Versions: 1 2 3 4 5 6 7 8 9 10 11 12 13 14 15 16 17 18 19 20 21 22 23 24 25 26 27 28 29 30 31 32 33 34 35 36 37 38 39 40 41 42 43 44 45 46 47 48 49 50

000
ASUS44 KMEG 271210
RWRTN
TENNESSEE HOURLY STATE WEATHER ROUNDUP
NATIONAL WEATHER SERVICE MEMPHIS TN
700 AM CDT WED MAY 27 2015

TNZ002-004-019-021-049-052-054-088>092-271300-
WEST TENNESSEE

CITY           SKY/WX    TMP DP  RH WIND       PRES   REMARKS
MEMPHIS INTL   PTSUNNY   74  69  85 SW5       30.09R
JACKSON        MOSUNNY   67  64  90 SE5       30.11S
DYERSBURG      MOSUNNY   68  55  64 CALM      30.11R
PARIS          PTSUNNY   64  64 100 SE3       30.12S
LEXINGTON      CLOUDY    66  66 100 VRB5      30.13R
$$

TNZ008-025-027-028-033-062-065-066-271300-
NORTH MIDDLE TENNESSEE

CITY           SKY/WX    TMP DP  RH WIND       PRES   REMARKS
NASHVILLE      CLOUDY    70  68  93 S7        30.16S
CLARKSVILLE    MOSUNNY   66  65  96 CALM      30.12F
SMYRNA         CLOUDY    70  68  93 CALM      30.18R
COOKEVILLE     CLOUDY    66  64  94 SW5       30.20R
CROSSVILLE     CLOUDY    65  62  90 S5        30.24R
$$

TNZ061-075-076-078-094-096-097-271300-
SOUTH MIDDLE TENNESSEE

CITY           SKY/WX    TMP DP  RH WIND       PRES   REMARKS
FAYETTEVILLE   CLOUDY   N/A N/A N/A MISG      30.18F
TULLAHOMA      CLOUDY    66  66 100 CALM      30.20S
WINCHESTER     PTSUNNY   66  64  94 SE7       30.20S
MCMINNVILLE    CLOUDY    70  70 100 CALM      30.20R
COLUMBIA       CLOUDY    72  70  94 S5        30.15R
SHELBYVILLE    CLOUDY    70  70 100 S6        30.19R
$$

TNZ017-018-042-046-047-271300-
NORTHEAST TENNESSEE

CITY           SKY/WX    TMP DP  RH WIND       PRES   REMARKS
TRI CITIES     MOSUNNY   68  64  87 S3        30.26R
ELIZABETHTON   CLOUDY    63  63 100 CALM      30.28R
$$

TNZ012-013-036-069-073-074-271300-
CENTRAL EAST TENNESSEE

CITY           SKY/WX    TMP DP  RH WIND       PRES   REMARKS
KNOXVILLE      PTSUNNY   67  62  84 SW8       30.22S
OAK RIDGE      CLOUDY    68  63  84 VRB5      30.23S
GATLINBURG     CLOUDY    63  61  94 CALM      30.23F
MORRISTOWN     PTSUNNY   66  63  88 S3        30.25S
$$

TNZ083-085-099-271300-
SOUTHEAST TENNESSEE

CITY           SKY/WX    TMP DP  RH WIND       PRES   REMARKS
CHATTANOOGA    PTSUNNY   68  65  90 S5        30.22S
$$

SKY/WX REPORTED AS FAIR MEANS FEW OR NO CLOUDS BELOW
12 THOUSAND FEET.



USA.gov is the U.S. government's official web portal to all federal, state and local government web resources and services.